EW3861 Weather Reports


time (UTC)temp
F
wind
direction
speed
knots
gust
knots
rain 1hr
in
rain 24hr
in
rain mn
in
humidity
%
barometer
mb
20260507064513 55 238 0.0 0.0 0.00 0.04 0.00 97 1004.9
20260507063124 56 238 0.0 0.0 0.00 0.04 0.00 97 1004.9
20260507061532 56 238 0.0 0.0 0.00 0.04 0.00 97 1004.9
20260507060106 56 238 0.0 0.0 0.00 0.04 0.00 97 1005.0
20260507054550 56 237 0.0 0.0 0.00 0.04 0.00 97 1005.4
20260507053010 56 237 0.0 0.0 0.00 0.04 0.00 97 1005.4
20260507051603 56 237 0.0 0.0 0.00 0.04 0.00 97 1005.4
20260507050017 56 237 0.0 0.0 0.00 0.04 0.00 97 1005.6
20260507044507 56 237 0.0 0.0 0.00 0.04 0.00 97 1005.5
20260507043058 56 237 0.0 0.0 0.00 0.04 0.00 97 1005.5
20260507041518 56 237 0.0 0.0 0.00 0.04 0.00 97 1005.4
20260507040109 56 237 0.0 0.0 0.00 0.04 0.00 97 1005.5
20260507034557 56 238 0.0 0.0 0.00 0.04 0.04 97 1005.5
20260507033001 56 207 0.0 0.0 0.00 0.04 0.04 97 1005.8
20260507031553 56 212 0.0 0.0 0.00 0.04 0.04 97 1005.5
20260507030008 56 217 0.0 0.0 0.00 0.04 0.04 97 1005.4
20260507024605 55 232 0.0 0.0 0.00 0.04 0.04 97 1005.3
20260507023011 55 214 0.0 0.0 0.00 0.04 0.04 97 1005.5
20260507021609 56 222 0.0 0.0 0.00 0.04 0.04 97 1005.2
20260507020015 56 247 0.0 0.0 0.00 0.04 0.04 97 1005.5
20260507014507 56 243 0.0 0.0 0.00 0.04 0.04 97 1005.7
20260507013116 56 211 0.0 0.0 0.00 0.04 0.04 97 1005.9
20260507011523 56 271 0.0 0.0 0.01 0.04 0.04 97 1005.9
20260507010110 56 250 0.0 0.0 0.01 0.04 0.04 96 1006.0
20260507004555 55 259 0.0 0.0 0.01 0.04 0.04 96 1005.9
20260507003010 55 206 0.0 0.0 0.02 0.04 0.04 96 1005.9
20260507001612 55 231 0.0 0.0 0.02 0.03 0.03 96 1006.0
20260507000016 55 219 0.0 0.0 0.03 0.03 0.03 96 1005.9
20260506234620 55 211 0.0 0.0 0.03 0.03 0.03 96 1005.9
20260506233043 55 212 0.0 0.0 0.02 0.02 0.02 95 1005.9
20260506231507 55 215 0.0 0.0 0.01 0.01 0.01 95 1005.9
20260506230108 55 234 0.0 0.0 0.00 0.00 0.00 95 1005.9
20260506224535 56 210 0.0 0.0 0.00 0.00 0.00 95 1005.8
20260506223128 56 213 0.0 0.0 0.00 0.00 0.00 95 1005.8
20260506221544 56 223 0.0 0.0 0.00 0.00 0.00 94 1006.1
20260506220012 56 222 0.0 0.0 0.00 0.00 0.00 93 1006.3
20260506214556 57 207 0.0 0.0 0.00 0.00 0.00 92 1006.3
20260506213018 57 221 0.0 0.0 0.00 0.00 0.00 92 1006.3
20260506211608 57 198 0.0 0.0 0.00 0.00 0.00 92 1006.5
20260506210023 58 201 0.0 0.0 0.00 0.00 0.00 92 1006.5
20260506204628 58 207 0.0 0.0 0.00 0.00 0.00 92 1006.6
20260506203049 58 217 0.0 0.0 0.00 0.00 0.00 91 1006.7
20260506201513 59 208 0.0 0.0 0.00 0.00 0.00 90 1006.8
20260506200114 60 195 0.0 0.0 0.00 0.00 0.00 89 1006.8
20260506194552 61 229 0.0 0.0 0.00 0.00 0.00 86 1006.9
20260506193006 62 243 0.0 0.0 0.00 0.00 0.00 84 1007.1
20260506191548 63 222 0.0 0.0 0.00 0.00 0.00 78 1007.1
20260506190007 63 221 0.0 0.0 0.00 0.00 0.00 77 1007.1
20260506184558 64 232 0.0 0.0 0.00 0.00 0.00 76 1006.9
20260506183020 65 191 0.0 0.0 0.00 0.00 0.00 74 1007.2
20260506181627 65 193 0.0 0.0 0.00 0.00 0.00 73 1007.2
20260506180021 65 257 0.0 0.0 0.00 0.00 0.00 72 1007.6
20260506174628 66 224 0.0 0.0 0.00 0.00 0.00 72 1007.7
20260506173121 66 216 0.0 0.0 0.00 0.00 0.00 72 1008.2
20260506171523 67 243 0.0 0.0 0.00 0.00 0.00 70 1008.0
20260506170111 67 229 0.0 0.0 0.00 0.00 0.00 71 1007.8
20260506164540 66 263 0.0 0.0 0.00 0.00 0.00 71 1008.3
20260506163012 66 219 0.0 0.0 0.00 0.00 0.00 72 1008.4
20260506161603 66 283 0.0 0.0 0.00 0.00 0.00 71 1008.6
20260506160033 66 172 0.0 0.0 0.00 0.00 0.00 71 1008.7
20260506154626 66 319 0.0 0.0 0.00 0.00 0.00 71 1008.9
20260506153052 66 209 0.0 0.0 0.00 0.00 0.00 73 1009.2
20260506151508 66 205 0.0 0.0 0.00 0.00 0.00 73 1009.2
20260506150106 65 196 0.0 0.0 0.00 0.00 0.00 74 1009.2
20260506144537 65 209 0.0 0.0 0.00 0.00 0.00 74 1009.2
20260506143002 65 211 0.0 0.0 0.00 0.00 0.00 73 1009.0
20260506141551 65 289 0.0 0.0 0.00 0.00 0.00 74 1009.2
20260506140005 64 231 0.0 0.0 0.00 0.00 0.00 75 1009.1
20260506134603 64 213 0.0 0.0 0.00 0.00 0.00 76 1009.3
20260506133021 62 205 0.0 0.0 0.00 0.00 0.00 80 1009.7
20260506131604 62 221 0.0 0.0 0.00 0.00 0.00 81 1009.8
20260506130036 60 193 0.0 0.0 0.00 0.00 0.00 83 1009.9
20260506124513 60 227 0.0 0.0 0.00 0.00 0.00 84 1009.9
20260506123057 59 204 0.0 0.0 0.00 0.00 0.00 85 1009.8
20260506121512 59 221 0.0 0.0 0.00 0.00 0.00 87 1009.8
20260506120106 58 261 0.0 0.0 0.00 0.00 0.00 87 1010.1
20260506114537 58 204 0.0 0.0 0.00 0.00 0.00 88 1010.2
20260506113128 57 200 0.0 0.0 0.00 0.00 0.00 89 1010.3
20260506111555 57 229 0.0 0.0 0.00 0.00 0.00 90 1010.2
20260506110019 56 225 0.0 0.0 0.00 0.00 0.00 91 1010.2
20260506104622 56 210 0.0 0.0 0.00 0.00 0.00 91 1010.2
20260506103043 56 184 0.0 0.0 0.00 0.00 0.00 91 1010.1
20260506101506 56 240 0.0 0.0 0.00 0.00 0.00 90 1010.2
20260506100105 56 229 0.0 0.0 0.00 0.00 0.00 90 1010.0
20260506094559 57 202 0.0 0.0 0.00 0.00 0.00 89 1009.8
20260506093128 57 225 0.0 0.0 0.00 0.00 0.00 89 1010.0
20260506091550 57 211 0.0 0.0 0.00 0.00 0.00 88 1009.9
20260506090012 57 213 0.0 0.0 0.00 0.00 0.00 88 1010.0
20260506084633 57 248 0.0 0.0 0.00 0.00 0.00 88 1010.1
20260506083053 57 223 0.0 0.0 0.00 0.00 0.00 87 1010.1
20260506081517 57 222 0.0 0.0 0.00 0.00 0.00 87 1010.2
20260506080109 58 209 0.0 0.0 0.00 0.00 0.00 86 1010.2
20260506073015 58 205 0.0 0.0 0.00 0.00 0.00 85 1010.1
20260506071602 58 216 0.0 0.0 0.00 0.00 0.00 84 1009.9